Previsão horária em Braga

Hoje, 30 Julho, Sexta-feira

Tempo Temperatura Precipitação Vento Pressão Humidade
00:00 +15°C° 0 mm 1 m/s 751 mmHg 86%
01:00 +15°C° 0 mm 1 m/s 751 mmHg 86%
02:00 +15°C° 0 mm 1 m/s 751 mmHg 86%
03:00 +15°C° 0 mm 1 m/s 751 mmHg 84%
04:00 +15°C° 0 mm 1 m/s 751 mmHg 83%
05:00 +15°C° 0 mm 1 m/s 751 mmHg 81%
06:00 +18°C° 0 mm 1 m/s 751 mmHg 73%
07:00 +21°C° 0 mm 1 m/s 751 mmHg 64%
08:00 +24°C° 0 mm 1 m/s 751 mmHg 56%
09:00 +25°C° 0 mm 2 m/s 751 mmHg 52%
10:00 +26°C° 0 mm 3 m/s 751 mmHg 48%
11:00 +28°C° 0 mm 4 m/s 751 mmHg 44%
12:00 +28°C° 0 mm 4 m/s 751 mmHg 45%
13:00 +27°C° 0 mm 5 m/s 751 mmHg 45%
14:00 +27°C° 0 mm 5 m/s 751 mmHg 46%
15:00 +26°C° 0 mm 5 m/s 750 mmHg 50%
16:00 +25°C° 0 mm 5 m/s 750 mmHg 54%
17:00 +23°C° 0 mm 5 m/s 750 mmHg 58%
18:00 +21°C° 0 mm 4 m/s 751 mmHg 67%
19:00 +19°C° 0 mm 3 m/s 751 mmHg 77%
20:00 +17°C° 0 mm 3 m/s 751 mmHg 86%
21:00 +17°C° 0 mm 3 m/s 751 mmHg 86%
22:00 +17°C° 0 mm 2 m/s 751 mmHg 87%
23:00 +16°C° 0 mm 2 m/s 751 mmHg 87%

Amanhã, 31 Julho, Sábado

Tempo Temperatura Precipitação Vento Pressão Humidade
00:00 +16°C° 0 mm 2 m/s 751 mmHg 88%
01:00 +15°C° 0 mm 2 m/s 751 mmHg 88%
02:00 +15°C° 0 mm 2 m/s 751 mmHg 89%
03:00 +14°C° 0 mm 2 m/s 751 mmHg 90%
04:00 +14°C° 0 mm 2 m/s 752 mmHg 90%
05:00 +13°C° 0 mm 2 m/s 752 mmHg 91%
06:00 +15°C° 0 mm 2 m/s 752 mmHg 78%
07:00 +18°C° 0 mm 3 m/s 752 mmHg 64%
08:00 +20°C° 0 mm 3 m/s 752 mmHg 51%
09:00 +21°C° 0 mm 4 m/s 752 mmHg 47%
10:00 +23°C° 0 mm 4 m/s 752 mmHg 43%
11:00 +25°C° 0 mm 5 m/s 752 mmHg 39%
12:00 +25°C° 0 mm 5 m/s 752 mmHg 40%
13:00 +26°C° 0 mm 6 m/s 751 mmHg 40%
14:00 +26°C° 0 mm 6 m/s 751 mmHg 41%
15:00 +23°C° 0 mm 6 m/s 751 mmHg 45%
16:00 +22°C° 0 mm 6 m/s 751 mmHg 49%
17:00 +21°C° 0 mm 5 m/s 752 mmHg 53%
18:00 +19°C° 0 mm 4 m/s 752 mmHg 63%
19:00 +17°C° 0 mm 3 m/s 752 mmHg 74%
20:00 +15°C° 0 mm 2 m/s 753 mmHg 84%
21:00 +14°C° 0 mm 2 m/s 753 mmHg 86%
22:00 +13°C° 0 mm 2 m/s 753 mmHg 89%
23:00 +13°C° 0 mm 1 m/s 753 mmHg 91%

Depois de amanhã, 1 Agosto, Domingo

Tempo Temperatura Precipitação Vento Pressão Humidade
00:00 +12°C° 0 mm 1 m/s 752 mmHg 91%
01:00 +12°C° 0 mm 1 m/s 752 mmHg 91%
02:00 +12°C° 0 mm 1 m/s 752 mmHg 91%
03:00 +12°C° 0 mm 1 m/s 752 mmHg 90%
04:00 +12°C° 0 mm 1 m/s 752 mmHg 89%
05:00 +12°C° 0 mm 1 m/s 753 mmHg 88%
06:00 +15°C° 0 mm 1 m/s 752 mmHg 74%
07:00 +18°C° 0 mm 1 m/s 752 mmHg 60%
08:00 +21°C° 0 mm 1 m/s 752 mmHg 46%
09:00 +23°C° 0 mm 2 m/s 752 mmHg 41%
10:00 +25°C° 0 mm 2 m/s 752 mmHg 36%
11:00 +26°C° 0 mm 3 m/s 751 mmHg 31%
12:00 +26°C° 0 mm 4 m/s 751 mmHg 33%
13:00 +27°C° 0 mm 5 m/s 751 mmHg 35%
14:00 +27°C° 0 mm 5 m/s 751 mmHg 38%
15:00 +26°C° 0 mm 5 m/s 751 mmHg 42%
16:00 +25°C° 0 mm 5 m/s 751 mmHg 47%
17:00 +23°C° 0 mm 5 m/s 751 mmHg 52%
18:00 +20°C° 0 mm 4 m/s 751 mmHg 64%
19:00 +18°C° 0 mm 3 m/s 751 mmHg 76%
20:00 +16°C° 0 mm 2 m/s 751 mmHg 88%
21:00 +16°C° 0 mm 2 m/s 751 mmHg 89%
22:00 +15°C° 0 mm 1 m/s 751 mmHg 89%
23:00 +15°C° 0 mm 1 m/s 751 mmHg 90%

2 Agosto, Segunda-feira

Tempo Temperatura Precipitação Vento Pressão Humidade
00:00 +15°C° 0 mm 1 m/s 751 mmHg 90%
01:00 +15°C° 0 mm 1 m/s 751 mmHg 90%
02:00 +14°C° 0 mm 2 m/s 751 mmHg 90%
03:00 +14°C° 0 mm 2 m/s 751 mmHg 89%
04:00 +14°C° 0 mm 2 m/s 751 mmHg 88%
05:00 +14°C° 0 mm 2 m/s 751 mmHg 88%
06:00 +18°C° 0 mm 1 m/s 751 mmHg 75%
07:00 +21°C° 0 mm 1 m/s 751 mmHg 62%
08:00 +24°C° 0 mm 1 m/s 751 mmHg 49%
09:00 +26°C° 0 mm 1 m/s 750 mmHg 43%
10:00 +28°C° 0 mm 2 m/s 750 mmHg 38%
11:00 +30°C° 0 mm 2 m/s 750 mmHg 32%
12:00 +30°C° 0 mm 3 m/s 750 mmHg 32%
13:00 +30°C° 0 mm 4 m/s 749 mmHg 32%
14:00 +30°C° 0 mm 5 m/s 749 mmHg 32%
15:00 +29°C° 0 mm 4 m/s 749 mmHg 36%
16:00 +28°C° 0 mm 4 m/s 749 mmHg 40%
17:00 +27°C° 0 mm 4 m/s 749 mmHg 44%
18:00 +25°C° 0 mm 3 m/s 749 mmHg 52%
19:00 +22°C° 0 mm 3 m/s 750 mmHg 61%
20:00 +19°C° 0 mm 2 m/s 750 mmHg 69%
21:00 +19°C° 0 mm 2 m/s 751 mmHg 71%
22:00 +18°C° 0 mm 2 m/s 751 mmHg 72%
23:00 +18°C° 0 mm 2 m/s 751 mmHg 73%

3 Agosto, Terça-feira

Tempo Temperatura Precipitação Vento Pressão Humidade
00:00 +17°C° 0 mm 2 m/s 751 mmHg 73%
01:00 +17°C° 0 mm 2 m/s 751 mmHg 72%
02:00 +17°C° 0 mm 2 m/s 751 mmHg 72%
03:00 +16°C° 0 mm 2 m/s 751 mmHg 71%
04:00 +16°C° 0 mm 1 m/s 751 mmHg 71%
05:00 +16°C° 0 mm 1 m/s 751 mmHg 70%
06:00 +20°C° 0 mm 1 m/s 751 mmHg 60%
07:00 +23°C° 0 mm 1 m/s 752 mmHg 51%
08:00 +26°C° 0 mm 1 m/s 752 mmHg 41%
09:00 +28°C° 0 mm 2 m/s 752 mmHg 37%
10:00 +29°C° 0 mm 3 m/s 752 mmHg 33%
11:00 +30°C° 0 mm 3 m/s 752 mmHg 29%
12:00 +30°C° 0 mm 4 m/s 752 mmHg 29%
13:00 +32°C° 0 mm 5 m/s 752 mmHg 29%
14:00 +32°C° 0 mm 5 m/s 751 mmHg 29%
15:00 +29°C° 0 mm 5 m/s 751 mmHg 33%
16:00 +28°C° 0 mm 4 m/s 751 mmHg 37%
17:00 +26°C° 0 mm 4 m/s 752 mmHg 41%
18:00 +24°C° 0 mm 3 m/s 752 mmHg 50%
19:00 +21°C° 0 mm 3 m/s 752 mmHg 60%
20:00 +19°C° 0 mm 2 m/s 753 mmHg 69%
21:00 +18°C° 0 mm 2 m/s 753 mmHg 72%
22:00 +18°C° 0 mm 2 m/s 753 mmHg 75%
23:00 +17°C° 0 mm 2 m/s 753 mmHg 79%

4 Agosto, Quarta-feira

Tempo Temperatura Precipitação Vento Pressão Humidade
00:00 +17°C° 0 mm 2 m/s 753 mmHg 80%
01:00 +18°C° 0 mm 1 m/s 753 mmHg 81%
02:00 +16°C° 0 mm 1 m/s 753 mmHg 82%
03:00 +16°C° 0 mm 1 m/s 753 mmHg 83%
04:00 +16°C° 0 mm 1 m/s 753 mmHg 84%
05:00 +16°C° 0 mm 1 m/s 753 mmHg 85%
06:00 +20°C° 0 mm 1 m/s 753 mmHg 74%
07:00 +23°C° 0 mm 1 m/s 753 mmHg 64%
08:00 +26°C° 0 mm 1 m/s 753 mmHg 53%
09:00 +28°C° 0 mm 2 m/s 753 mmHg 47%
10:00 +29°C° 0 mm 3 m/s 753 mmHg 41%
11:00 +32°C° 0 mm 4 m/s 753 mmHg 35%
12:00 +32°C° 0 mm 4 m/s 752 mmHg 34%
13:00 +32°C° 0 mm 5 m/s 752 mmHg 33%
14:00 +33°C° 0 mm 5 m/s 752 mmHg 32%
15:00 +30°C° 0 mm 5 m/s 752 mmHg 37%
16:00 +29°C° 0 mm 5 m/s 752 mmHg 43%
17:00 +27°C° 0 mm 4 m/s 752 mmHg 48%
18:00 +25°C° 0 mm 4 m/s 752 mmHg 59%
19:00 +21°C° 0 mm 3 m/s 753 mmHg 71%
20:00 +19°C° 0 mm 2 m/s 753 mmHg 82%
21:00 +19°C° 0 mm 1 m/s 753 mmHg 85%
22:00 +19°C° 0 mm 1 m/s 753 mmHg 88%
23:00 +16°C° 0 mm 0 m/s 753 mmHg 90%
Mostrar mais

Necessitamos do seu Consentimento

A Meteoprog e os seus Fornecedores de Serviços podem armazenar e aceder a dados pessoais como cookies, identificadores do dispositivo ou outras tecnologias semelhantes existentes no seu dispositivo e processar estes dados para personalizar conteúdos e anúncios, assim como funcionalidades nas redes sociais e análise de tráfego.

  • Armazenar e/ou aceder a informações no seu dispositivo

    Os cookies, identificadores do dispositivo ou outras informações podem ser armazenados ou acedidos no seu dispositivo, para os fins acima indicados.

  • Anúncios e conteúdos personalizados, medição de anúncios e conteúdos, dados sobre o público-alvo e desenvolvimento de produtos

    Os anúncios e os conteúdos podem ser personalizados com base num perfil. Podem ser adicionados dados adicionais para uma maior personalização dos anúncios e dos conteúdos. A eficácia dos anúncios e dos conteúdos pode ser medida. Podem ser obtidas informações sobre o público que visualizou os anúncios e os conteúdos. Estes dados podem ser usados para desenvolver ou melhorar sistemas, softwares ou a experiência do utilizador.

Ao clicar em "Eu concordo”, permitirá o uso de cookies, identificadores do dispositivo e web beacons mencionados ou outras tecnologias semelhantes. As configurações do navegador do seu dispositivo podem ser alteradas.

Para certos fins, podem ser invocados interesses legítimos ao invés de consentimento. Pode ler mais informação sobre este assunto na nossa Política de Privacidade e Cookies.